| time (UTC) | temp C | wind direction | speed KPH | gust KPH | rain 1hr cm | rain 24hr cm | rain mn cm | humidity % | barometer mb |
| 20260503212005 | 28 | 202 | 1.6 | 3.2 | 0.00 | 0.00 | 0.00 | 32 | 1009.6 |
| 20260503211005 | 28 | 219 | 1.6 | 3.2 | 0.00 | 0.00 | 0.00 | 32 | 1009.7 |
| 20260503205004 | 28 | 261 | 0.0 | 8.0 | 0.00 | 0.00 | 0.00 | 32 | 1009.9 |
| 20260503204004 | 27 | 227 | 1.6 | 3.2 | 0.00 | 0.00 | 0.00 | 33 | 1010.1 |
| 20260503203004 | 27 | 197 | 1.6 | 8.0 | 0.00 | 0.00 | 0.00 | 32 | 1010.2 |
| 20260503202005 | 27 | 48 | 1.6 | 4.8 | 0.00 | 0.00 | 0.00 | 32 | 1010.3 |
| 20260503200005 | 27 | 244 | 1.6 | 4.8 | 0.00 | 0.00 | 0.00 | 34 | 1010.6 |
| 20260503194005 | 27 | 120 | 1.6 | 4.8 | 0.00 | 0.00 | 0.00 | 34 | 1010.9 |
| 20260503193004 | 27 | 165 | 1.6 | 8.0 | 0.00 | 0.00 | 0.00 | 35 | 1010.9 |
| 20260503192005 | 26 | 254 | 1.6 | 8.0 | 0.00 | 0.00 | 0.00 | 34 | 1011.2 |
| 20260503190005 | 26 | 215 | 3.2 | 8.0 | 0.00 | 0.00 | 0.00 | 37 | 1011.3 |
| 20260503185005 | 25 | 71 | 4.8 | 8.0 | 0.00 | 0.00 | 0.00 | 40 | 1011.4 |
| 20260503182005 | 23 | 227 | 0.0 | 4.8 | 0.00 | 0.00 | 0.00 | 44 | 1011.7 |
| 20260503181005 | 23 | 112 | 1.6 | 9.7 | 0.00 | 0.00 | 0.00 | 46 | 1011.8 |
| 20260503180005 | 23 | 57 | 1.6 | 9.7 | 0.00 | 0.00 | 0.00 | 48 | 1011.9 |
| 20260503175004 | 22 | 119 | 3.2 | 8.0 | 0.00 | 0.00 | 0.00 | 52 | 1012.0 |
| 20260503174004 | 21 | 49 | 3.2 | 8.0 | 0.00 | 0.00 | 0.00 | 54 | 1012.0 |
| 20260503172005 | 21 | 55 | 1.6 | 9.7 | 0.00 | 0.00 | 0.00 | 55 | 1012.2 |
| 20260503171004 | 21 | 113 | 3.2 | 9.7 | 0.00 | 0.00 | 0.00 | 54 | 1012.3 |
| 20260503151004 | 17 | 32 | 0.0 | 0.0 | 0.00 | 0.00 | 0.00 | 72 | 1012.7 |
| 20260503072005 | 14 | 154 | 0.0 | 0.0 | 0.00 | 0.00 | 0.00 | 72 | 1012.8 |
| 20260503071006 | 14 | 154 | 0.0 | 0.0 | 0.00 | 0.00 | 0.00 | 72 | 1012.8 |
| 20260503055005 | 15 | 154 | 0.0 | 0.0 | 0.00 | 0.00 | 0.00 | 64 | 1012.6 |
| 20260503045005 | 17 | 154 | 0.0 | 0.0 | 0.00 | 0.00 | 0.00 | 58 | 1012.5 |
| 20260503044005 | 18 | 154 | 0.0 | 0.0 | 0.00 | 0.00 | 0.00 | 57 | 1012.4 |
| 20260503043004 | 18 | 154 | 0.0 | 0.0 | 0.00 | 0.00 | 0.00 | 55 | 1012.4 |
| 20260503042005 | 18 | 154 | 0.0 | 0.0 | 0.00 | 0.00 | 0.00 | 54 | 1012.3 |
| 20260503041004 | 19 | 154 | 0.0 | 1.6 | 0.00 | 0.00 | 0.00 | 53 | 1012.2 |
| 20260503040005 | 19 | 79 | 0.0 | 0.0 | 0.00 | 0.00 | 0.00 | 52 | 1012.1 |
| 20260503034005 | 20 | 157 | 0.0 | 0.0 | 0.00 | 0.00 | 0.00 | 47 | 1011.7 |
| 20260503033004 | 21 | 157 | 0.0 | 4.8 | 0.00 | 0.00 | 0.00 | 45 | 1011.6 |
| 20260503030005 | 22 | 144 | 1.6 | 3.2 | 0.00 | 0.00 | 0.00 | 45 | 1011.4 |
| 20260503025005 | 22 | 130 | 0.0 | 3.2 | 0.00 | 0.00 | 0.00 | 46 | 1011.2 |
| 20260503023004 | 22 | 31 | 3.2 | 9.7 | 0.00 | 0.00 | 0.00 | 46 | 1011.1 |
| 20260503022004 | 23 | 147 | 0.0 | 8.0 | 0.00 | 0.00 | 0.00 | 45 | 1011.1 |
| 20260503021006 | 23 | 44 | 0.0 | 8.0 | 0.00 | 0.00 | 0.00 | 44 | 1011.1 |
| 20260503020005 | 23 | 301 | 1.6 | 3.2 | 0.00 | 0.00 | 0.00 | 44 | 1011.0 |
| 20260503014006 | 24 | 285 | 0.0 | 1.6 | 0.00 | 0.00 | 0.00 | 44 | 1011.0 |
| 20260503013004 | 24 | 134 | 0.0 | 3.2 | 0.00 | 0.00 | 0.00 | 43 | 1011.0 |
| 20260503012005 | 25 | 173 | 3.2 | 8.0 | 0.00 | 0.00 | 0.00 | 43 | 1011.0 |
| 20260503011005 | 25 | 171 | 3.2 | 3.2 | 0.00 | 0.00 | 0.00 | 43 | 1011.0 |
| 20260503010004 | 25 | 221 | 1.6 | 4.8 | 0.00 | 0.00 | 0.00 | 43 | 1011.0 |
| 20260503005004 | 24 | 230 | 1.6 | 8.0 | 0.00 | 0.00 | 0.00 | 44 | 1011.1 |
| 20260503003004 | 25 | 322 | 1.6 | 4.8 | 0.00 | 0.00 | 0.00 | 43 | 1011.2 |
| 20260503002005 | 25 | 60 | 3.2 | 4.8 | 0.00 | 0.00 | 0.00 | 44 | 1011.3 |
| 20260503001006 | 25 | 234 | 1.6 | 4.8 | 0.00 | 0.00 | 0.00 | 42 | 1011.4 |
| 20260503000004 | 25 | 277 | 1.6 | 11.3 | 0.00 | 0.00 | 0.00 | 43 | 1011.4 |
| 20260502235005 | 25 | 47 | 4.8 | 9.7 | 0.00 | 0.00 | 0.00 | 42 | 1011.5 |
| 20260502234004 | 25 | 282 | 0.0 | 9.7 | 0.00 | 0.00 | 0.00 | 40 | 1011.6 |
| 20260502233005 | 25 | 184 | 1.6 | 9.7 | 0.00 | 0.00 | 0.00 | 41 | 1011.7 |
| 20260502231005 | 24 | 74 | 4.8 | 11.3 | 0.00 | 0.00 | 0.00 | 42 | 1012.1 |
| 20260502225005 | 24 | 223 | 1.6 | 11.3 | 0.00 | 0.00 | 0.00 | 44 | 1012.4 |
| 20260502224004 | 24 | 45 | 4.8 | 9.7 | 0.00 | 0.00 | 0.00 | 45 | 1012.6 |
| 20260502223005 | 24 | 59 | 4.8 | 9.7 | 0.00 | 0.00 | 0.00 | 47 | 1012.6 |
| 20260502222005 | 24 | 57 | 3.2 | 9.7 | 0.00 | 0.00 | 0.00 | 46 | 1012.8 |
| 20260502221005 | 24 | 252 | 1.6 | 4.8 | 0.00 | 0.00 | 0.00 | 48 | 1012.9 |
| 20260502214004 | 23 | 36 | 3.2 | 9.7 | 0.00 | 0.00 | 0.00 | 50 | 1013.1 |